Flag for Canada Weather past 2 weeks in Cumberland County, Nova Scotia, Canada

Now
43 °F

Quite cool.


Feels Like: 35 °F
Forecast: N/A
Wind: 15 mph from West

Location: Kentville

Current Time: Dec 26, 2014 at 6:49:14 PM

Latest Report: Dec 26, 2014 at 6:00 PM


Visibility: N/A

Pressure: 29.88 "Hg

Humidity: 54%

Dew point: 27 °F

Location of Cumberland CountyLocation

Historic Weather in Cumberland County — Graph

°F

Cumberland County temperature yesterday

Maximum temperature yesterday: 64 °F (at 1:00 PM)
Minimum temperature yesterday: 45 °F (at 10:00 PM)
Average temperature yesterday: 58 °F

Past Weeks' High & Low Weather Summary

 TemperatureHumidityPressure
High64 °F (Dec 25, 1:00 PM)100% (Dec 12, 7:00 AM)30.47 "Hg (Dec 12, 7:00 AM)
Low24 °F (Dec 23, 3:00 AM)48% (Dec 26, 12:00 PM)29.33 "Hg (Dec 18, 7:00 AM)
Average36 °F87%29.93 "Hg
* Reported Dec 11 5:00 PM — Dec 26 5:00 PM, Cumberland County, Weather by CustomWeather, © 2014

Note: Actual official high and low records may vary slightly from our data, if they occured in-between our weather recording intervals... More about our weather records

Advertising

Cumberland County weather history for previous 24 hours

 ConditionsComfort  
Time TempWeatherWind HumidityBarometerVisibility
5:00 PM
Dec 26
43 °FQuite cool.15 mph53%29.86 "HgN/A
4:00 PM44 °FQuite cool.16 mph51%29.83 "HgN/A
3:00 PM45 °FQuite cool.22 mph50%29.83 "HgN/A
2:00 PM45 °FQuite cool.21 mph50%29.80 "HgN/A
1:00 PM45 °FCool.24 mph48%29.79 "HgN/A
12:00 PM45 °FQuite cool.24 mph48%29.78 "HgN/A
11:00 AM44 °FQuite cool.23 mph49%29.79 "HgN/A
10:00 AM43 °FQuite cool.21 mph51%29.78 "HgN/A
9:00 AM42 °FQuite cool.20 mph56%29.77 "HgN/A
8:00 AM41 °FQuite cool.16 mph57%29.75 "HgN/A
7:00 AM40 °FQuite cool.15 mph59%29.73 "HgN/A
6:00 AM41 °FQuite cool.17 mph57%29.71 "HgN/A
5:00 AM42 °FQuite cool.21 mph55%29.70 "HgN/A
4:00 AM42 °FQuite cool.17 mph56%29.67 "HgN/A
2:00 AM44 °FQuite cool.21 mph55%29.62 "HgN/A
1:00 AM45 °FQuite cool.18 mph56%29.60 "HgN/A
12:00 AM46 °FCool.18 mph54%29.58 "HgN/A
10:00 PM
Dec 25
45 °FCool.12 mph66%29.53 "HgN/A
7:00 PM51 °FCool.14 mph84%29.43 "HgN/A
6:00 PM53 °FCool.13 mph83%29.40 "HgN/A
Weather by CustomWeather, © 2014

See weather overviewHow to use our weather pages